Showing default

BALKAN-3, 69903

Orbit data source: Space-Track

BALKAN-3, 69903 is a Bulgarian payload satellite in SSO that was launched on Tue, 07 Jul 2026 UTC via an FALCON 9 launch vehicle from the Air Force Western Test Range (AFWTR). Payload-class satellites include a variety of spacecraft equipped with specific instruments for various scientific and technological missions. These include communications satellites like Starlink; space stations such as the ISS; scientific satellites like the Hubble; Earth observation satellites from companies like Planet Labs, Umbra, and HawkEye 360; GPS; miniature CubeSats for education and research; and military/defense satellites.

Loading next visibility...
Identifier
69903, 2026-156AL
Orbit
SSO
Country
Flag of BGBG / BGR
Related business
None
Manufacturer
Unknown
Mission
Operational spacecraft
Bus & Motor
Unknown
Mass
Unknown
Launch date (UTC)
2026-07-07 (2 months ago)
Launch vehicle
FALCON 9
Launch site
Air Force Western Test Range (AFWTR)
Object type
Payload
Rocket body
Debris
Shape & HBR
Unknown shape, 14.5 m
Radar Cross Section
Medium (>0.1 m² and <1 m²)

Expand to show TLE details & history
Last TLE update: 2 days ago

TLE from 2 days ago
0 BALKAN-3
1 69903U 26156AL  26235.25123412  .00001503  00000-0  15720-3 0  9992
2 69903  97.7527 134.8995 0003541  13.4479 346.6833 14.91097927  6992
Epoch: 2026-08-23T06:01Z
TLE epoch observation values (Epoch: 2026-08-23T06:01:46.627Z)
Latitude
-0.00007°
Longitude
72.90526°
Altitude
595.149 km
Speed
7.564 km/s
True Right ascension
08h 59m 35s
True Declination
0° 00' 00"
Sunlit
Object was in daylight at epoch
Visualization orbit readout
Latitude
Unknown
Longitude
Unknown
Altitude
Unknown
Speed
Unknown
Apparent Right ascension
Unknown
Apparent Declination
Unknown
Sunlit
N/A
Visualization observer readout
Local Sidereal Time
02:01:58
Azimuth
Unknown
Elevation
Unknown
Doppler factor
Unknown
Orbital elements
Apogee altitude
593.998 km
Perigee altitude
589.062 km
Semi-major axis
6,969.667 km
Eccentricity
0.00035
Inclination
97.7527°
RAAN
134.8995°
Arg. of periapsis
13.4479°
True anomaly
346.67395°
Mean anomaly
346.6833°
Eccentric anomaly
346.67863°
Mean motion
3.73014 °/min
Orbital period
96.51 mins
BSTAR
0.0001572
Loading maneuver chart data...
Computing Atmospheric mass density...
Loading historical data...
Loading historical data...
Loading historical data...
Loading historical data...
Loading historical data...
Loading historical data...
Loading historical data...

Documentation

Showing up to 5 results
|